NOAA 16 DEB, 41208

Orbit data source: Space-Track

NOAA 16 DEB, 41208 is space debris in SSO originally from a launch on Thu, 21 Sep 2000 UTC launched from the Air Force Western Test Range (AFWTR). Debris objects in space refer to the collection of defunct objects orbiting the Earth. Examples of debris include non-operational satellites, rocket bodies, and fragments generated from explosions, collisions, or faulty payload assembly.

Loading next visibility...
Identifier
41208, 2000-055DM
Orbit
SSO
Country
Flag of USUS
Related business
Manufacturer
Unknown
Mission
Spacecraft
Bus & Motor
Unknown
Mass
Unknown
Launch date (UTC)
2000-09-21 (25 years ago)
Launch vehicle
Unknown
Launch site
Air Force Western Test Range (AFWTR)
Object type
Payload
Rocket body
Debris
Shape & HBR
Unknown shape, 0.1 m
Radar Cross Section
Small (<0.1 m²)

Expand to show TLE details & history
Last TLE update: 2 days ago

TLE from 2 days ago
0 NOAA 16 DEB
1 41208U 00055DM  26036.25323021  .00004667  00000-0  22937-2 0  9998
2 41208  98.6666  51.5756 0030864 266.1683  93.5963 14.17869471520853
Epoch: 2026-02-05T06:04Z
TLE epoch observation values (Epoch: 2026-02-05T06:04:39.090Z)
Latitude
-0.00004°
Longitude
-174.99538°
Altitude
836.945 km
Speed
7.434 km/s
True Right ascension
03h 26m 18s
True Declination
0° 00' 00"
Sunlit
Object was in daylight at epoch
Visualization orbit readout
Latitude
Unknown
Longitude
Unknown
Altitude
Unknown
Speed
Unknown
Apparent Right ascension
Unknown
Apparent Declination
Unknown
Sunlit
N/A
Visualization observer readout
Local Sidereal Time
12:34:36
Azimuth
Unknown
Elevation
Unknown
Doppler factor
Unknown
Orbital elements
Apogee altitude
851.973 km
Perigee altitude
807.48 km
Semi-major axis
7,207.863 km
Eccentricity
0.00309
Inclination
98.6666°
RAAN
51.5756°
Arg. of periapsis
266.1683°
True anomaly
93.94919°
Mean anomaly
93.5963°
Eccentric anomaly
93.77275°
Mean motion
3.54677 °/min
Orbital period
101.5 mins
BSTAR
0.0022937
Loading maneuver chart data...
Computing Atmospheric mass density...
Loading historical data...
Loading historical data...
Loading historical data...
Loading historical data...
Loading historical data...
Loading historical data...
Loading historical data...

Documentation

Showing up to 5 results
|